User: anonymous   Login
Location: Unspecified
(0.0000°N, 0.0000°E)
Time: 07:22:40
(UTC+00:00)
Language:

DMSP 5D-3 F19 (USA 249) - Orbit

View from above orbital plane
View from above orbital plane
View from above satellite
View from above satellite

Ground track
Ground track

The orbit data is extracted from the following two-line orbital elements,

1 39630U 14015A   17285.01199144 0.00000000  00000-0  00000-0 0    07
2 39630  98.7866 299.1674 0010500 244.0812 115.9187 14.14093701    04
Epoch (UTC): 12 October 2017 00:17:16
Eccentricity: 0.0010500
inclination: 98.7866°
perigee height: 838 km
apogee height: 853 km
right ascension of ascending node: 299.1674°
argument of perigee: 244.0812°
revolutions per day: 14.14093701
mean anomaly at epoch: 115.9187°
orbit number at epoch: 0

The dashed part of the orbit path shows where the satellite is in the earth's shadow,  

DLR